Location: G�nzburg
(48.4565°N, 10.3217°E)
Time: 13:19:34
(UTC+01:00)

N. Korean satellite - Visible Passes

Search period start: 19 February 2018 00:00
Search period end: 01 March 2018 00:00
Orbit: 459 x 514 km, 97.2° (Epoch: 18 February)

Date Brightness Start Highest point End Pass type
(mag) Time Alt. Az. Time Alt. Az. Time Alt. Az.
19 Feb 10.3 19:22:05 10° WSW 19:23:24 12° W 19:24:44 10° WNW visible
20 Feb 8.2 06:42:47 10° NNE 06:46:17 42° E 06:49:48 10° S visible
20 Feb 9.4 18:56:44 10° SW 18:59:27 21° W 19:02:12 10° NW visible
21 Feb 9.5 06:19:26 10° NE 06:22:26 23° E 06:25:27 10° SSE visible
21 Feb 8.1 18:32:18 10° S 18:35:34 39° W 18:38:53 10° NNW visible
22 Feb 10.3 05:56:39 10° ENE 05:58:30 13° E 06:00:22 10° ESE visible
23 Feb 10.2 19:20:24 10° WSW 19:21:53 12° W 19:23:24 10° WNW visible
24 Feb 9.4 18:55:08 10° SSW 18:57:55 22° W 19:00:44 10° NW visible
25 Feb 9.6 06:17:56 10° NE 06:20:57 23° E 06:23:57 10° SSE visible
25 Feb 8.1 18:30:43 10° S 18:34:01 41° W 18:37:24 10° NNW visible
26 Feb 10.4 05:55:10 10° ENE 05:56:59 13° E 05:58:49 10° ESE visible
27 Feb 10.2 19:18:40 10° WSW 19:20:19 13° W 19:22:00 10° WNW visible
28 Feb 9.4 18:53:30 10° SSW 18:56:21 23° W 18:59:15 10° NW visible
